C/2020 F5 ( MASTER )

Japanese version
Home page
Updated on August 11, 2020

---------------------------------------------------------------------

* Profile

Discovery Date March 28, 2020
Magnitude 15.8 mag
Discoverer Mobile Astronomical System of the Telescope-Robots (MASTER) auto-detection system near San Juan, Argentina

* Pictures

* Orbital Elements

Epoch 2021 Mar. 7.0 TT = JDT 2459280.5
T 2021 Mar. 24.27342 TT                                 Rudenko
q   4.3258538            (2000.0)            P               Q
z  -0.0007760      Peri.  311.07330     +0.57218270     +0.81010690
 +/-0.0000146      Node   350.62832     -0.28569758     +0.05081648
e   1.0033569      Incl.   51.70682     -0.76875474     +0.58407576
From 152 observations 2020 Mar. 16-July 26, mean residual 0".4.

* Finding Charts

* Magnitudes Graph

        m1 = 5.3 + 5 log d + 10.0 log r

---------------------------------------------------------------------

The orbital elements are published on M.P.E.C. 2020-P19.
The charts are made with StellaNavigator Ver.10 (AstroArts).
The magnitudes graphs are made with Comet for Windows.

---------------------------------------------------------------------

Copyright(C) Seiichi Yoshida (comet@aerith.net). All rights reserved.